Wind_Speed
12 12 11 10 11 12 14 17 19 19 19 20 20 20 20 19 19 19 20 23 25 24 26 26 25 25 24 23 23 22 21 19 17 15 14 15 14 14 13 12 12 12 11 10 10 11 12 12 11 11 11 10 9 8 7 7 8 7 6 6 5 5 4
12 12 12 11 11 12 14 18 19 19 20 20 19 20 20 20 21 21 21 24 26 26 27 27 26 25 24 24 23 23 22 20 18 16 14 14 14 15 15 14 13 13 12 12 11 11 11 11 12 13 12 11 10 9 8 7 8 9 8 8 7 7 6
12 12 12 12 12 12 14 17 18 19 20 20 20 20 21 21 23 24 24 25 26 25 25 27 27 26 24 24 23 23 23 21 19 17 14 13 13 13 14 15 14 13 13 13 12 11 10 11 12 13 12 11 10 9 9 8 9 10 10 9 8 8 7
13 13 13 13 13 12 14 17 18 19 20 21 22 22 23 23 23 24 24 25 25 25 25 27 27 25 24 24 23 23 23 22 19 17 14 13 13 13 14 14 14 13 13 13 13 13 12 12 12 13 13 13 11 10 10 9 9 10 10 10 9 9 8
11 12 12 12 12 11 13 17 19 19 20 20 21 22 22 22 21 21 22 23 24 25 26 26 24 23 24 24 22 21 23 23 21 18 16 15 15 14 14 14 13 13 13 13 13 14 14 13 12 13 13 13 12 11 10 10 10 10 11 10 9 9 8
8 10 10 11 12 11 13 17 19 21 21 21 22 21 20 20 20 20 21 21 22 22 23 23 22 22 25 24 21 21 23 23 22 20 17 17 16 15 14 14 13 13 13 13 14 14 14 14 13 13 12 11 11 11 10 10 9 10 11 11 11 10 9
8 8 10 11 12 12 13 17 19 20 20 20 20 19 19 20 20 20 20 20 21 21 20 22 22 22 24 23 22 22 23 22 21 20 18 16 16 15 13 14 14 13 13 13 14 14 13 14 13 13 12 11 11 11 11 11 11 11 12 13 13 13 12
8 8 9 11 13 12 13 16 18 19 18 17 17 18 19 19 19 19 20 20 20 20 20 21 21 21 23 23 23 23 23 21 20 19 18 16 15 15 14 14 14 13 13 13 13 14 14 13 13 13 13 12 12 12 12 13 13 12 12 14 14 13 12
8 9 10 11 13 13 14 17 18 18 18 18 18 19 19 18 19 20 20 20 20 20 21 23 22 19 21 23 23 22 21 20 19 19 18 17 15 16 15 14 14 14 14 13 12 13 14 13 12 13 14 13 13 14 14 14 14 13 14 15 14 13 12
8 8 8 10 11 11 13 16 16 16 17 18 18 18 19 18 18 19 19 20 20 21 22 23 21 19 20 23 22 20 19 19 18 18 17 17 16 16 16 14 13 14 14 12 11 12 12 13 12 13 14 14 14 15 15 15 15 15 14 15 14 14 13
8 7 7 9 10 10 12 14 14 15 16 17 18 18 18 19 19 19 20 21 22 23 21 20 19 18 20 21 20 19 19 18 18 17 17 17 16 16 16 15 14 14 13 12 12 11 11 12 12 13 14 14 14 14 15 15 15 15 15 14 14 14 13
7 6 7 9 10 10 11 11 13 15 16 16 18 18 18 19 19 19 20 22 23 23 20 19 20 20 20 20 19 19 20 19 18 17 17 17 16 15 15 15 14 13 13 12 12 12 11 11 12 12 14 14 14 14 15 15 15 15 15 14 13 14 13
7 6 5 7 8 9 9 9 11 14 15 16 18 18 19 20 20 20 21 22 23 23 22 21 23 23 22 21 19 19 22 21 18 17 17 16 16 15 14 14 14 13 13 13 12 12 12 12 12 12 13 14 14 14 15 15 15 15 16 15 14 14 14
8 6 5 5 6 7 9 9 10 12 15 16 17 18 18 19 19 20 21 21 21 21 22 22 24 23 23 21 19 20 23 22 20 19 18 17 16 16 14 14 14 13 13 13 13 13 13 12 12 12 13 13 14 14 14 15 15 15 16 16 15 14 13
9 7 6 5 5 5 7 7 7 10 13 15 16 17 18 18 18 18 19 19 19 20 21 22 22 22 21 21 21 23 24 23 22 22 21 20 19 18 17 15 14 14 13 13 13 13 13 12 12 12 12 13 14 15 15 14 15 16 16 16 15 14 13
7 6 5 5 4 2 2 3 5 7 10 12 14 16 17 17 17 19 19 19 21 23 23 23 22 21 20 20 22 23 24 24 24 24 23 22 21 21 20 18 16 15 14 14 14 14 14 14 13 13 12 13 14 15 15 14 15 16 16 15 15 14 13
6 5 6 6 5 4 3 1 1 4 7 10 12 15 16 16 17 18 18 19 23 24 24 24 23 22 21 21 21 20 19 20 22 22 22 22 21 20 20 19 18 17 16 15 14 15 16 16 15 14 13 13 13 14 14 14 15 16 16 15 15 16 15
6 5 6 6 5 5 4 3 2 1 2 4 7 10 12 13 14 16 17 18 21 24 24 23 22 21 20 20 20 18 15 14 15 16 18 20 20 20 20 19 19 18 18 16 14 15 15 16 16 16 15 14 14 14 14 14 15 16 15 14 15 16 16
8 7 6 5 5 6 5 5 4 4 4 4 3 5 9 11 11 12 14 15 18 21 22 21 20 19 18 17 17 17 14 12 12 13 14 16 17 18 18 19 19 19 19 18 16 15 15 15 16 16 17 16 15 16 15 14 16 17 16 15 16 16 17
9 8 7 6 6 6 5 5 4 4 4 5 5 4 5 9 10 12 15 16 17 18 19 18 17 16 15 14 13 12 11 10 10 10 10 10 11 13 15 17 18 19 19 19 19 18 17 16 15 16 17 17 17 18 17 15 17 19 19 18 18 18 19
9 9 7 6 5 5 5 5 5 5 4 5 6 6 2 2 6 10 13 14 15 16 18 18 16 15 14 12 12 12 12 10 9 9 9 9 10 9 9 11 15 17 17 19 19 18 18 18 17 17 19 19 19 18 15 15 19 21 20 20 20 20 19
8 8 7 6 6 6 6 5 6 5 6 8 9 9 7 2 3 6 8 10 12 14 15 16 17 17 14 12 13 15 15 13 11 11 10 10 12 12 10 8 9 11 12 14 15 15 15 15 13 14 15 16 18 18 15 17 20 20 19 20 20 20 18
9 9 9 8 8 7 6 5 5 5 3 5 7 10 12 10 7 6 6 8 10 12 13 13 15 15 13 12 12 12 11 12 12 12 11 11 12 15 14 11 10 10 10 12 12 10 11 10 8 9 10 11 12 13 14 16 19 19 19 20 19 18 17
11 11 11 10 9 9 8 7 6 7 6 3 3 6 10 9 9 9 8 8 9 12 13 13 13 14 13 11 9 5 4 6 8 10 11 11 13 15 16 15 14 14 13 12 11 10 8 5 5 8 10 9 10 10 11 13 15 16 17 18 18 17 16
11 12 12 12 11 10 10 8 8 10 11 10 8 7 8 8 9 9 7 6 7 8 9 7 7 8 9 8 7 6 6 7 8 7 6 7 10 13 14 14 13 11 9 8 10 12 9 6 6 7 6 6 6 7 6 7 9 11 12 14 15 15 14
10 11 12 12 12 13 13 12 13 13 13 11 9 8 9 9 9 8 8 7 6 5 4 3 3 3 5 5 5 7 8 9 8 6 5 7 8 8 9 10 8 7 6 7 9 10 9 8 7 5 2 2 2 2 2 1 4 6 7 9 10 11 9
11 13 14 13 13 14 16 17 17 18 17 14 11 9 9 10 11 11 11 10 9 6 4 3 4 5 6 6 5 4 4 4 3 3 4 7 7 5 5 6 6 6 6 6 6 7 8 8 6 4 4 3 3 4 3 3 3 4 4 5 6 7 7
12 13 13 13 14 14 16 18 20 21 22 21 20 18 17 17 16 14 14 13 11 8 8 9 10 9 9 8 7 6 5 3 2 1 3 4 4 3 4 5 5 4 5 5 5 6 7 8 7 7 7 5 5 7 8 8 7 6 6 6 5 3 2
11 12 13 14 15 16 17 19 19 21 23 26 26 26 26 26 24 19 17 18 15 12 14 16 17 17 16 15 15 14 11 9 7 6 5 4 2 1 3 4 3 3 4 5 6 7 7 8 9 9 10 11 12 14 15 14 12 11 10 10 10 10 9
10 12 13 14 15 16 18 19 19 20 24 27 28 28 29 30 28 24 21 20 19 20 20 20 20 21 19 19 20 19 16 13 10 8 8 7 4 1 2 2 3 4 4 5 6 8 9 9 9 11 13 15 16 16 15 13 12 11 11 10 10 10 11
9 11 12 13 14 15 16 18 18 19 22 25 27 27 27 27 27 25 21 20 21 23 24 23 23 22 22 22 22 21 18 17 15 14 13 12 9 7 5 5 5 6 6 5 6 9 11 10 10 11 13 14 15 15 13 11 10 9 8 8 8 9 9
8 9 11 12 13 15 16 16 17 18 19 21 23 24 24 24 24 23 20 19 20 21 22 22 22 22 21 21 21 20 19 19 18 18 18 18 17 15 13 10 9 9 8 8 9 10 11 11 9 10 11 12 13 14 12 10 8 7 6 6 6 7 8
8 9 10 11 13 16 17 16 16 16 17 17 19 21 21 21 21 20 18 18 19 19 19 19 18 18 17 17 18 19 19 18 18 18 18 19 19 19 17 15 13 11 10 10 10 10 9 9 8 8 9 11 12 12 10 8 6 5 5 5 5 6 7
7 8 10 12 15 17 17 16 15 15 15 16 17 18 20 20 19 18 17 17 16 17 18 17 16 15 14 15 16 17 17 16 16 17 18 18 18 18 17 15 13 12 11 10 10 9 8 7 6 7 9 11 11 9 8 6 4 4 4 4 4 5 5
7 8 10 12 14 16 16 15 14 14 15 16 16 17 19 19 18 17 17 17 16 16 17 18 18 17 15 15 15 15 15 15 15 16 17 17 17 16 15 13 12 10 9 8 7 7 7 6 6 7 9 9 9 7 6 5 4 3 3 3 4 4 4
7 8 9 10 12 13 14 14 14 14 14 15 15 16 17 18 17 17 16 16 15 16 17 18 19 18 16 15 14 14 14 15 15 15 16 16 16 16 16 14 13 11 10 8 6 4 4 4 4 5 6 6 7 6 5 4 3 3 4 5 6 6 5
8 8 8 8 9 11 12 13 13 13 13 13 13 14 16 16 16 16 15 14 14 14 16 17 17 16 15 14 14 13 14 14 14 14 15 15 15 15 15 15 14 13 12 11 9 7 6 5 6 6 5 4 4 4 3 3 3 5 6 6 7 6 6
9 9 9 8 9 9 10 10 11 11 12 12 12 13 14 15 16 15 14 13 12 12 13 15 15 13 12 12 13 12 12 13 13 13 13 13 12 13 13 13 14 14 13 12 11 10 10 9 9 8 6 4 4 4 3 4 5 7 8 8 8 8 8
Wind_Direction
179 180 183 182 182 183 183 181 180 181 183 184 186 186 187 187 189 191 195 199 200 201 202 203 204 206 209 210 213 216 218 220 224 228 231 230 231 233 234 235 233 232 230 227 229 230 229 226 221 223 227 231 238 242 248 251 242 237 241 240 240 244 247
180 183 183 182 184 186 185 181 179 181 183 185 185 185 186 187 189 193 197 201 203 204 204 205 205 207 209 211 213 216 217 219 223 228 232 235 239 240 239 240 240 240 238 232 230 232 232 231 228 227 231 237 243 245 252 256 246 239 240 242 242 243 247
183 184 180 182 185 185 182 180 180 182 184 184 184 186 188 189 192 194 197 200 202 203 204 206 207 208 209 211 214 217 218 219 222 225 229 235 240 241 242 245 245 243 241 235 231 232 234 237 236 233 234 239 242 245 251 255 250 243 241 245 249 247 250
185 185 180 181 183 182 180 180 182 183 184 186 187 189 191 192 193 194 197 199 200 201 203 206 207 207 209 212 213 215 216 217 221 224 227 232 238 242 244 246 246 243 241 238 234 234 238 244 245 240 239 242 244 249 252 251 249 243 241 247 253 254 256
180 181 179 181 182 182 183 184 185 184 185 187 188 190 193 192 192 194 196 198 200 202 204 205 204 205 209 212 211 212 213 216 221 224 227 234 239 242 242 243 243 243 243 241 239 239 243 247 246 243 242 245 247 250 252 252 248 243 242 249 256 258 259
174 175 176 183 184 184 185 188 189 188 187 187 188 190 191 190 191 194 196 197 199 201 202 202 201 203 208 210 209 210 213 216 221 225 228 233 237 237 237 239 240 242 244 245 244 244 247 248 245 241 241 244 245 246 248 250 248 243 244 251 257 259 259
172 175 178 182 186 186 186 189 190 190 190 187 186 189 189 190 192 194 196 197 199 199 199 201 201 204 207 207 207 210 213 216 220 223 224 227 230 230 232 237 241 243 246 249 250 249 249 249 247 245 245 244 245 245 247 250 248 245 249 257 261 262 261
170 176 182 183 187 188 186 188 189 189 186 183 184 187 189 192 193 193 195 196 197 199 200 202 202 203 206 207 208 210 211 213 215 219 220 220 222 224 227 234 240 244 248 249 251 252 252 250 246 247 248 247 247 248 248 250 249 247 252 260 263 262 259
175 182 185 184 188 189 186 187 188 186 183 182 185 187 188 191 192 193 196 196 196 199 204 207 206 204 206 209 211 211 210 210 213 216 218 218 220 223 225 229 234 242 247 245 246 250 253 250 245 248 252 252 252 253 251 251 249 248 254 259 261 258 254
182 185 183 183 186 186 184 184 184 184 183 183 186 188 189 191 192 194 196 197 200 204 208 210 208 205 208 212 213 211 210 211 213 214 216 218 220 222 224 226 230 237 242 239 239 244 249 251 247 248 254 254 253 253 252 251 250 250 253 256 256 254 253
174 177 175 177 180 180 181 182 183 184 184 184 187 190 191 193 194 196 198 201 205 208 209 209 207 205 210 212 210 209 211 212 213 215 216 218 220 222 223 224 225 231 234 234 236 239 242 247 247 247 249 249 248 250 253 254 254 254 254 254 254 254 254
162 167 168 171 177 180 181 182 183 184 185 187 190 192 192 194 196 197 200 204 207 209 206 205 207 208 210 210 207 208 212 213 213 215 216 218 220 221 222 221 221 226 229 230 234 238 238 241 243 245 247 247 246 248 253 257 258 258 257 256 255 257 257
145 150 156 164 173 176 179 182 185 187 187 188 194 196 195 196 197 198 200 204 207 209 207 207 211 212 212 210 206 209 216 215 214 216 216 217 219 219 220 221 223 225 228 230 234 237 238 238 241 245 248 249 249 249 254 259 260 259 260 259 257 258 259
134 136 135 146 162 174 181 187 190 190 190 191 195 197 197 198 199 199 201 203 204 206 207 210 214 213 213 212 208 213 219 219 217 218 217 217 219 220 220 221 225 228 231 233 235 238 240 240 243 246 247 247 249 250 254 260 262 260 260 262 261 258 258
129 129 127 130 147 173 187 194 196 195 195 196 196 197 199 200 199 199 201 202 204 206 208 211 213 212 212 212 213 219 223 223 222 223 223 223 224 225 224 222 226 230 234 236 238 239 241 243 246 248 247 248 252 255 256 257 259 260 261 263 264 261 257
105 104 105 103 98 105 167 197 207 207 206 204 201 201 201 199 198 199 200 201 205 209 211 212 211 210 210 213 218 223 225 225 226 227 227 227 227 229 228 227 228 231 234 238 239 239 242 247 250 249 248 250 252 254 255 253 255 261 262 261 262 263 259
64 64 66 64 58 55 59 50 239 226 223 218 213 208 204 201 198 198 198 201 206 210 211 211 210 209 211 215 220 223 224 225 227 228 229 229 230 231 232 233 234 236 239 241 242 245 250 253 253 253 252 253 252 252 252 251 257 264 264 259 260 263 262
58 49 49 44 38 45 49 37 17 325 278 254 236 223 215 209 203 201 202 203 205 209 210 210 208 207 209 214 218 219 220 222 225 227 229 231 231 232 235 238 239 241 245 245 245 250 253 255 256 257 259 258 256 256 254 255 264 270 267 261 261 262 262
66 61 58 47 32 35 37 33 29 25 19 358 302 253 231 219 205 201 205 207 207 209 209 207 205 204 206 211 216 217 215 215 220 225 229 233 235 236 238 240 241 244 247 249 250 251 253 255 256 258 261 261 259 260 261 261 268 272 270 265 262 260 260
58 58 55 47 39 32 19 7 2 3 7 5 360 338 240 218 208 204 208 211 211 210 209 205 200 199 201 201 205 210 211 211 215 222 230 235 237 239 240 241 244 247 250 253 255 256 257 258 257 259 264 266 265 266 267 264 267 271 272 270 266 262 261
49 50 47 44 45 40 23 357 338 323 304 304 322 338 348 172 191 199 202 205 206 206 207 203 197 196 196 189 186 191 195 197 205 219 236 244 243 240 239 244 251 254 255 256 256 258 261 262 262 264 268 269 268 268 267 264 268 273 273 270 268 265 262
50 48 44 42 41 37 29 12 355 333 295 284 289 288 281 260 171 179 181 184 192 197 200 197 195 194 187 178 185 196 201 204 207 214 228 242 248 242 230 231 249 259 267 267 262 257 259 261 263 267 271 273 271 268 264 264 269 271 269 267 266 264 260
51 52 50 48 49 45 39 35 30 17 318 280 277 271 262 251 236 226 204 184 185 190 191 190 190 187 179 180 192 202 213 220 220 219 224 235 248 247 239 233 237 248 266 276 272 261 254 255 259 262 265 274 277 270 263 265 269 268 265 264 263 262 259
53 55 53 49 50 48 45 51 59 61 68 97 175 232 247 242 222 211 198 179 181 191 194 193 190 184 180 184 188 185 210 239 241 234 231 237 248 253 250 245 241 244 252 260 268 271 265 251 251 260 263 268 272 267 261 263 266 265 265 264 262 260 258
57 58 57 52 50 48 47 52 61 66 69 75 101 154 193 202 186 172 155 146 164 181 184 181 177 180 181 182 190 207 227 245 254 251 248 253 255 254 256 255 252 251 249 248 260 272 277 266 252 254 259 257 254 253 253 261 268 270 270 269 267 262 258
56 56 58 57 56 56 55 52 53 56 55 52 70 113 144 155 149 130 116 119 131 144 166 171 165 194 203 188 185 209 223 232 243 259 280 277 261 251 254 255 246 231 226 232 241 249 256 258 251 236 221 215 208 198 201 272 299 298 292 289 282 269 257
60 63 64 62 60 61 61 59 56 56 56 53 58 80 106 115 104 91 94 101 100 97 117 160 176 194 204 191 172 180 205 228 255 285 280 265 255 238 233 237 228 218 223 228 215 203 213 231 229 182 155 155 142 123 100 65 32 356 333 323 306 281 258
58 62 61 59 58 62 66 65 61 59 60 62 64 67 76 81 74 66 71 72 64 69 92 109 126 136 136 130 124 116 110 103 90 121 203 228 235 226 227 235 233 226 223 211 189 178 186 192 183 161 148 134 115 100 85 74 64 51 38 36 34 17 295
55 59 58 58 59 63 69 69 65 61 63 66 68 68 70 71 66 58 56 55 52 63 84 95 104 109 109 111 111 110 112 116 123 132 134 125 118 205 235 229 214 208 198 176 166 159 152 150 150 144 131 116 107 99 93 89 84 74 64 60 59 56 51
58 62 63 64 63 64 68 70 69 66 67 69 70 70 70 72 70 63 57 60 69 77 81 85 92 95 96 98 101 103 105 106 106 103 97 95 97 129 208 184 160 158 156 151 151 148 140 135 136 131 123 115 107 99 93 88 82 74 66 62 61 58 53
62 65 68 67 67 68 70 72 72 70 69 70 71 71 70 71 74 73 69 73 79 79 78 80 84 85 84 84 86 89 92 92 91 88 85 88 92 95 99 110 119 122 118 113 122 131 130 127 126 123 118 112 104 96 89 84 81 75 67 62 66 69 64
65 66 69 68 69 73 75 75 73 71 68 67 69 71 70 70 72 76 80 83 82 77 76 80 83 82 82 83 83 82 81 81 82 83 83 84 86 88 92 99 109 113 109 102 105 114 117 118 117 115 111 107 103 99 98 97 93 83 71 63 63 64 57
69 68 72 75 80 82 79 74 71 69 68 65 66 69 71 70 71 74 78 82 83 82 83 88 90 89 88 86 83 79 76 75 76 81 85 85 85 87 91 96 102 106 105 105 106 107 108 111 113 113 112 112 111 112 113 112 108 95 81 69 56 46 38
80 78 81 86 89 87 82 75 70 67 64 63 64 67 70 70 69 71 73 75 79 81 83 87 92 95 95 92 87 83 82 82 83 86 89 90 89 90 91 95 98 102 103 103 104 103 103 108 118 122 123 123 124 124 122 116 111 105 92 72 47 32 26
88 85 87 91 92 91 88 84 79 74 68 64 63 66 70 70 69 69 71 73 74 75 77 81 86 89 93 94 91 88 87 89 93 96 97 96 95 92 90 90 90 92 94 93 95 100 102 109 125 134 135 134 132 127 118 107 101 90 64 33 10 353 344
104 98 95 94 93 92 93 91 87 84 79 73 68 67 68 69 69 67 67 67 67 68 72 76 79 82 86 90 92 93 94 96 100 102 102 101 99 96 92 89 85 83 83 81 79 85 93 96 109 127 136 134 127 121 113 101 84 40 10 2 355 347 343
119 113 105 97 93 91 91 91 91 91 88 82 76 72 69 68 67 65 63 62 61 64 68 72 74 75 78 82 88 95 101 104 106 107 105 104 104 102 98 93 87 82 79 77 76 78 84 87 94 106 115 113 107 109 104 75 43 25 21 21 22 23 29
130 127 120 108 98 90 87 85 85 87 87 83 77 74 71 69 66 62 60 60 60 63 67 71 73 74 75 81 88 96 104 109 112 112 109 107 107 106 103 100 94 88 83 81 80 84 91 99 106 114 119 113 102 100 92 71 55 52 54 51 44 46 54
Height
795 798 799 800 802 804 806 809 812 814 816 819 821 824 827 829 832 834 835 837 839 841 843 845 847 849 850 852 854 855 857 858 859 860 861 862 863 864 864 865 866 867 868 869 870 870 871 872 873 874 874 875 875 876 876 877 877 878 878 879 879 879 879
794 796 797 799 801 802 804 807 810 812 815 817 820 823 825 827 829 832 834 836 837 839 841 843 845 847 849 851 852 854 855 857 858 859 860 861 862 862 863 864 865 866 867 868 869 869 870 871 872 873 873 874 875 875 875 876 876 877 877 878 878 878 878
793 794 795 796 798 800 802 805 808 811 813 815 818 821 823 825 827 829 831 834 836 838 840 842 843 845 847 849 851 852 854 856 857 858 859 860 861 861 862 863 864 865 866 867 868 869 869 870 871 872 872 873 874 874 875 875 875 876 876 877 877 877 877
791 791 792 794 795 798 800 803 806 809 811 813 815 818 820 822 824 827 830 832 834 836 838 840 841 843 845 847 849 851 852 854 856 857 858 859 860 860 861 862 863 864 865 866 867 868 868 869 870 871 871 872 873 873 874 874 875 875 875 876 876 876 877
790 790 792 793 794 797 798 801 804 806 809 812 814 816 818 821 824 826 828 830 832 835 836 838 840 842 844 845 847 849 850 852 854 856 857 858 859 860 860 861 862 863 864 865 866 866 867 868 869 870 870 871 872 872 873 873 873 874 874 875 875 875 876
790 790 792 792 793 795 796 799 802 804 807 809 812 815 817 820 823 824 827 829 831 833 835 837 839 840 842 843 845 847 849 851 852 854 855 856 858 859 859 860 861 862 863 864 865 865 866 867 868 869 869 870 871 871 871 872 872 873 873 874 874 874 875
789 790 790 790 791 792 794 797 800 802 805 808 810 814 816 819 821 823 825 827 829 832 833 835 837 838 840 842 843 845 847 849 850 852 854 855 856 857 858 859 860 861 862 862 863 864 865 866 866 867 868 869 869 869 870 870 871 872 872 872 873 873 873
786 788 788 788 788 790 792 795 798 801 804 807 810 812 815 817 819 821 823 825 827 830 831 833 835 837 838 840 841 843 844 847 848 850 852 853 854 855 857 858 858 859 860 861 862 863 863 864 865 866 866 867 868 868 869 869 869 870 871 871 871 872 872
784 785 786 786 786 788 790 793 796 799 802 805 807 810 813 815 817 819 821 823 826 827 829 831 833 835 837 838 840 841 843 845 846 848 849 851 852 853 855 856 857 858 859 860 861 861 862 863 863 864 865 865 866 866 867 868 868 869 869 869 870 870 871
784 785 785 785 785 787 789 792 795 797 800 803 805 808 811 813 815 817 819 821 823 825 827 829 831 833 835 836 838 840 842 843 845 846 848 849 850 851 853 854 855 856 857 858 859 860 860 861 862 862 863 863 864 865 865 866 866 867 867 868 868 868 869
783 784 785 785 786 787 788 791 793 796 798 800 803 806 808 810 813 815 817 819 821 823 825 827 830 831 833 835 837 839 840 842 843 845 846 847 849 850 851 852 853 854 855 856 857 858 859 859 860 861 861 862 862 863 863 864 865 865 866 866 867 867 867
783 784 785 786 786 787 788 790 792 794 796 799 801 804 806 808 811 813 815 817 819 821 823 825 827 829 831 833 835 836 838 840 841 843 844 846 847 848 849 851 852 853 854 855 855 856 857 858 858 859 859 860 861 862 862 863 863 864 864 865 865 866 866
782 784 785 786 786 787 788 789 791 792 795 798 799 802 804 806 808 811 813 815 817 819 821 823 825 827 829 831 833 834 835 837 839 841 842 844 845 847 848 849 850 851 852 853 854 855 855 856 857 857 858 859 859 860 861 861 862 862 862 863 864 864 864
783 785 786 787 787 788 789 790 790 791 794 796 798 800 802 804 806 808 811 813 815 817 819 821 823 824 827 829 831 832 833 835 837 839 840 842 843 845 846 847 848 849 851 852 852 853 854 855 855 856 856 857 858 858 859 859 860 860 861 861 862 862 863
784 786 788 789 789 789 790 790 790 791 793 795 797 799 800 802 805 807 809 812 813 815 817 819 821 823 825 827 829 830 831 833 835 836 838 839 840 842 844 845 846 847 849 850 851 852 853 853 854 855 855 855 856 856 857 857 858 858 859 859 860 860 861
787 789 790 790 791 791 791 791 791 792 794 794 796 797 799 801 802 804 807 809 811 813 815 817 819 821 823 825 826 828 829 831 832 834 835 837 838 840 841 843 844 845 846 847 849 850 851 852 852 853 853 854 854 855 855 855 855 856 856 857 858 858 859
792 792 792 793 793 793 792 792 793 794 794 795 796 796 798 799 800 802 804 806 808 810 812 814 816 818 820 822 824 826 828 829 830 832 834 835 837 838 839 841 842 843 844 845 847 848 849 850 851 851 852 852 852 853 853 853 853 853 854 855 855 856 857
795 795 795 796 795 794 794 793 794 795 796 796 797 797 798 799 800 802 803 805 806 808 810 813 814 816 818 820 822 824 826 828 830 831 833 834 835 837 838 839 841 842 843 844 845 846 847 848 849 849 850 850 851 851 851 851 851 851 852 853 853 854 854
797 797 798 798 796 796 796 796 796 797 797 797 797 797 798 799 800 802 803 805 806 808 809 811 813 815 817 819 821 822 824 827 828 830 831 832 834 835 836 838 839 840 841 842 843 844 845 846 846 847 848 848 848 848 849 849 849 849 850 851 851 851 852
797 798 798 798 797 797 797 797 798 798 798 798 799 799 799 799 799 801 802 804 806 808 810 811 812 814 816 818 820 821 823 825 827 829 831 832 833 834 834 836 837 838 839 840 841 842 842 843 844 845 845 846 846 846 846 847 847 847 848 848 849 849 849
799 799 800 800 799 800 800 800 800 799 798 799 800 800 800 800 800 800 801 803 805 807 809 811 812 814 815 817 818 819 821 823 825 827 829 831 833 833 833 834 835 836 838 838 839 840 840 840 841 842 843 843 844 844 845 845 845 845 846 846 847 847 847
802 802 803 803 802 801 801 801 800 800 799 799 799 800 801 801 800 801 802 803 804 807 809 810 811 813 815 816 817 818 820 821 822 824 826 829 831 832 831 831 832 834 836 837 838 838 838 838 839 839 840 841 841 842 843 842 842 843 843 844 845 845 845
804 804 804 804 803 802 802 801 800 799 798 798 799 799 800 801 800 801 802 802 804 807 809 810 811 812 814 816 817 819 821 822 822 822 823 825 828 830 830 829 829 831 833 836 838 837 836 836 837 837 837 838 839 840 840 840 840 841 841 842 842 843 843
805 805 805 804 804 803 802 802 801 800 799 799 799 800 800 800 800 801 802 803 805 808 810 810 811 812 814 815 817 819 821 823 824 823 821 822 825 828 829 828 828 828 829 832 837 838 838 836 835 835 835 835 837 838 838 838 838 839 839 839 840 841 841
807 807 806 805 805 804 803 803 802 800 800 800 801 800 800 800 801 802 803 805 807 809 810 810 811 811 813 816 817 817 817 821 825 823 821 822 824 825 826 828 828 828 828 830 833 838 839 836 833 833 834 834 835 836 837 837 837 838 838 838 839 839 839
809 808 807 807 806 806 805 804 802 801 801 802 802 802 802 803 804 804 805 806 807 808 809 810 811 811 813 816 817 816 815 819 822 821 820 823 825 824 825 827 828 827 827 828 830 835 839 837 834 833 834 835 835 834 835 836 837 838 838 838 838 838 838
811 810 809 809 808 807 806 806 805 804 804 804 804 804 804 805 806 806 806 806 807 808 809 810 811 812 813 815 815 815 815 817 818 818 819 824 826 825 825 826 827 826 826 826 828 832 836 836 834 833 833 835 835 834 834 835 837 838 838 838 838 838 838
812 811 811 810 810 809 808 808 808 808 808 807 807 807 807 807 808 809 808 808 810 810 811 811 812 813 814 815 814 813 813 815 818 820 822 824 824 824 825 825 826 826 826 827 828 830 833 834 833 832 833 835 835 835 834 836 838 839 839 839 839 839 838
814 813 813 812 812 812 811 810 811 811 811 811 810 810 810 810 811 812 812 812 813 813 813 813 813 814 816 817 815 815 815 818 820 822 822 821 821 823 825 826 826 826 827 827 828 830 832 833 833 833 834 836 836 836 835 837 839 840 840 840 840 840 840
816 816 815 814 814 814 813 813 814 814 814 814 813 813 812 812 813 815 816 816 817 816 815 816 816 817 818 817 816 816 817 819 820 820 820 819 821 824 826 826 826 826 826 827 829 831 832 833 834 834 835 837 837 836 836 838 839 840 841 841 841 841 841
819 818 817 817 816 816 816 816 816 816 816 817 816 816 816 815 816 818 819 820 820 819 818 819 819 819 819 818 817 818 819 820 821 821 820 821 822 824 826 826 825 825 827 829 831 832 834 835 835 836 836 837 836 835 837 839 841 842 843 843 842 842 842
821 820 819 819 818 818 818 818 818 818 818 819 820 820 820 820 820 821 822 823 823 822 822 822 823 823 823 822 822 822 822 822 822 822 822 823 823 824 825 826 826 827 829 831 833 834 835 836 837 837 837 837 836 837 839 841 843 844 844 844 843 843 842
823 822 822 821 820 820 820 819 820 820 821 822 823 823 823 824 824 825 825 826 826 826 826 826 826 826 826 826 825 825 824 823 823 824 824 825 826 827 827 829 830 830 831 833 834 835 836 837 838 838 838 838 839 840 842 844 845 845 845 845 844 843 843
825 824 824 823 823 822 822 822 822 823 823 824 825 826 826 826 826 827 828 828 828 828 828 828 828 827 827 826 826 825 825 825 826 827 827 828 829 830 831 832 833 833 833 834 834 835 836 838 839 839 840 840 841 843 844 845 846 846 846 845 844 844 843
826 826 826 825 825 825 825 825 825 825 826 826 827 828 828 828 829 829 829 829 830 830 829 829 829 828 827 827 827 827 827 828 829 829 830 831 832 832 833 834 834 834 834 834 835 836 837 838 839 840 841 842 843 844 845 846 847 847 846 846 845 844 843
828 828 827 827 827 827 827 827 827 828 828 829 829 829 829 830 830 830 830 830 830 830 830 829 829 829 829 829 829 829 830 830 831 832 833 833 834 834 834 835 835 835 835 836 836 836 837 838 840 840 841 842 843 845 846 846 847 847 846 845 844 843 842
829 829 829 829 829 828 828 829 829 830 830 831 831 831 831 831 831 831 831 831 831 831 830 830 830 830 830 831 831 832 832 833 833 834 834 835 835 836 836 836 836 837 837 837 838 838 839 839 840 841 842 843 844 845 846 846 847 846 845 844 843 842 840
829 830 830 830 830 830 830 830 831 831 832 832 833 833 832 832 832 832 832 832 832 832 832 831 831 832 832 833 833 833 834 834 835 835 836 836 836 837 837 837 838 839 839 840 840 840 840 841 842 842 843 844 845 846 847 847 846 846 845 844 843 842 840